Regional Weather Roundup
Issued by NWS

Home | Current Version | Previous Version | Text Only | Print | Product List | Glossary Off
Versions: 1 2 3 4 5 6 7 8 9 10 11 12 13 14 15 16 17 18 19 20 21 22 23 24 25 26 27 28 29 30 31 32 33 34 35 36 37 38 39 40 41 42 43 44 45 46 47 48 49 50

000
ASUS43 KIND 301459
RWRIN

WEATHER ROUNDUP FOR INDIANA
NATIONAL WEATHER SERVICE INDIANAPOLIS IN
1100 AM EDT SAT APR 30 2016

NOTE: "FAIR" INDICATES FEW OR NO CLOUDS BELOW 12,000 FEET WITH NO
SIGNIFICANT WEATHER AND/OR OBSTRUCTIONS TO VISIBILITY.

* - STATION DOES NOT REPORT WEATHER SUCH AS PRECIPITATION OR FOG.

+ - STATION NOT QUALITY CONTROLLED BY THE NATIONAL WEATHER SERVICE.
    USE DATA WITH CAUTION...ESPECIALLY DEWPOINT AND RELATIVE
    HUMIDITY OBSERVATIONS.

INZ001>003-010>013-019-020-301600-
NORTHWEST INDIANA

CITY           SKY/WX    TMP DP  RH WIND       PRES   REMARKS
GARY /AIRPORT/ LGT RAIN  50  46  87 E14       30.05S
RENSSELAER +   LGT RAIN  46  45  93 E14G20    30.02F

$$

LMZ046-743>745-301600-
SOUTHERN LAKE MICHIGAN

STATION/POSITION TIME  TEMP    WIND        PRES    WAVE
                       AIR SEA DIR/SP/G            HT
                 (UTC) (F)     (DEG/KT/KT) (MB)    (FT)
BURNS HARBOR     1404   49      90/ 10/ 18 1017.9F
MICHIGAN CITY    1400   48      90/ 13/ 18   N/A

$$

INZ004-005-014>016-021>024-301600-
NORTH CENTRAL INDIANA

CITY           SKY/WX    TMP DP  RH WIND       PRES   REMARKS
ELKHART        CLOUDY    48  41  76 SE17      30.08F
GOSHEN         CLOUDY    49  35  58 E16       30.08S
SOUTH BEND     CLOUDY    48  35  60 E12       30.08S

$$

INZ006>009-017-018-025>027-301600-
NORTHEAST INDIANA

CITY           SKY/WX    TMP DP  RH WIND       PRES   REMARKS
ANGOLA *+      SUNNY     48  37  66 E15       30.08S
FORT WAYNE     LGT RAIN  48  41  76 E13       30.08S

$$

INZ028-029-035-036-043>045-051>053-301600-
WEST CENTRAL INDIANA

CITY           SKY/WX    TMP DP  RH WIND       PRES   REMARKS
CRAWFORDSVL +  LGT RAIN  49  49 100 E10       29.99S
GREENCASTLE +  CLOUDY    52  52 100 SE9       29.98F FOG
LAFAYETTE      RAIN      49  47  93 E15       30.00F FOG
TERRE HAUTE    LGT RAIN  56  53  90 E13       29.93F

$$

INZ030>032-037>040-046>048-054>057-064-065-301600-
CENTRAL INDIANA

CITY           SKY/WX    TMP DP  RH WIND       PRES   REMARKS
ANDERSON       LGT RAIN  48  46  93 E6        30.04R
INDIANAPOLIS   RAIN      51  48  89 E12       29.98F FOG
-EAGLE CREEK   LGT RAIN  51  49  92 E9        30.00F FOG
KOKOMO *+      CLOUDY    46  43  87 E13       30.03S
SHELBYVILLE    LGT RAIN  53  48  83 SE8       30.02S

$$

INZ033-034-041-042-049-050-058-059-301600-
EAST CENTRAL INDIANA

CITY           SKY/WX    TMP DP  RH WIND       PRES   REMARKS
MUNCIE         LGT RAIN  49  45  86 E10       30.04S FOG

$$

INZ060-061-067>069-081>083-085>088-301600-
SOUTHWEST INDIANA

CITY           SKY/WX    TMP DP  RH WIND       PRES   REMARKS
EVANSVILLE     RAIN      59  57  93 SE6       29.91R FOG
HUNTINGBURG *+ CLOUDY    59  55  88 E9        29.91F

$$

INZ062-063-066-070>080-084-089>092-301600-
SOUTH CENTRAL AND SOUTHEAST INDIANA

CITY           SKY/WX    TMP DP  RH WIND       PRES   REMARKS
BLOOMINGTON    LGT RAIN  55  52  89 E13       29.94F FOG
MADISON *+     CLOUDY    54  52  94 E7        30.02F
SEYMOUR +      LGT RAIN  57  54  88 E12       29.98F

$$





USA.gov is the U.S. government's official web portal to all federal, state and local government web resources and services.